Time,TemperatureF,DewpointF,PressureIn,WindDirection,WindDirectionDegrees,WindSpeedMPH,WindSpeedGustMPH,Humidity,HourlyPrecipIn,Conditions,Clouds,dailyrainin,SolarRadiationWatts/m^2,SoftwareType,DateUTC
2013-02-22 00:01:00,18.0,18.0,-100.00,ESE,103,4.0,13.0,100,0.00,,,0.11,1.000000,,2013-02-22 06:01:00,
2013-02-22 00:22:00,17.0,17.0,-100.00,ESE,106,5.0,14.0,100,0.00,,,0.11,1.000000,,2013-02-22 06:22:00,
2013-02-22 00:32:00,17.0,17.0,-100.00,ESE,106,5.0,14.0,100,0.00,,,0.11,1.000000,,2013-02-22 06:32:00,
2013-02-22 00:42:00,17.0,17.0,-100.00,ESE,106,5.0,14.0,100,0.00,,,0.11,1.000000,,2013-02-22 06:42:00,
2013-02-22 00:52:00,17.0,17.0,-100.00,ESE,106,5.0,14.0,100,0.00,,,0.11,1.000000,,2013-02-22 06:52:00,
2013-02-22 01:01:00,17.0,17.0,-100.00,ESE,106,5.0,14.0,100,0.00,,,0.11,1.000000,,2013-02-22 07:01:00,
2013-02-22 01:32:00,17.0,17.0,-100.00,ESE,111,4.0,14.0,100,0.00,,,0.11,1.000000,,2013-02-22 07:32:00,
2013-02-22 01:42:00,17.0,17.0,-100.00,ESE,111,4.0,14.0,100,0.00,,,0.11,1.000000,,2013-02-22 07:42:00,
2013-02-22 01:52:00,17.0,17.0,-100.00,ESE,111,4.0,14.0,100,0.00,,,0.11,1.000000,,2013-02-22 07:52:00,
2013-02-22 02:01:00,17.0,17.0,-100.00,ESE,111,4.0,14.0,100,0.00,,,0.11,1.000000,,2013-02-22 08:01:00,
2013-02-22 02:02:00,16.0,16.0,-100.00,ESE,107,4.0,12.0,100,0.00,,,0.11,1.000000,,2013-02-22 08:02:00,
2013-02-22 02:32:00,16.0,16.0,-100.00,ESE,107,4.0,12.0,100,0.00,,,0.11,1.000000,,2013-02-22 08:32:00,
2013-02-22 02:42:00,16.0,16.0,-100.00,ESE,107,4.0,12.0,100,0.00,,,0.11,1.000000,,2013-02-22 08:42:00,
2013-02-22 02:52:00,16.0,16.0,-100.00,ESE,107,4.0,12.0,100,0.00,,,0.11,1.000000,,2013-02-22 08:52:00,
2013-02-22 03:22:00,16.0,16.0,-100.00,ESE,105,5.0,13.0,99,0.00,,,0.11,1.000000,,2013-02-22 09:22:00,
2013-02-22 03:32:00,16.0,16.0,-100.00,ESE,105,5.0,13.0,99,0.00,,,0.11,1.000000,,2013-02-22 09:32:00,
2013-02-22 03:42:00,16.0,16.0,-100.00,ESE,105,5.0,13.0,99,0.00,,,0.11,1.000000,,2013-02-22 09:42:00,
2013-02-22 03:52:00,16.0,16.0,-100.00,ESE,105,5.0,13.0,99,0.00,,,0.11,1.000000,,2013-02-22 09:52:00,
2013-02-22 04:01:00,16.0,16.0,-100.00,ESE,105,5.0,13.0,99,0.00,,,0.11,1.000000,,2013-02-22 10:01:00,
2013-02-22 04:32:00,16.0,16.0,-100.00,East,95,5.0,13.0,100,0.00,,,0.11,1.000000,,2013-02-22 10:32:00,
2013-02-22 04:42:00,16.0,16.0,-100.00,East,95,5.0,13.0,100,0.00,,,0.11,1.000000,,2013-02-22 10:42:00,
2013-02-22 04:52:00,16.0,16.0,-100.00,East,95,5.0,13.0,100,0.00,,,0.11,1.000000,,2013-02-22 10:52:00,
2013-02-22 05:01:00,16.0,16.0,-100.00,East,95,5.0,13.0,100,0.00,,,0.11,1.000000,,2013-02-22 11:01:00,
2013-02-22 05:02:00,17.0,17.0,-100.00,East,99,4.0,16.0,100,0.00,,,0.11,1.000000,,2013-02-22 11:02:00,
2013-02-22 05:22:00,17.0,17.0,-100.00,East,99,4.0,16.0,100,0.00,,,0.11,1.000000,,2013-02-22 11:22:00,
2013-02-22 05:32:00,17.0,17.0,-100.00,East,99,4.0,16.0,100,0.00,,,0.11,1.000000,,2013-02-22 11:32:00,
2013-02-22 05:42:00,17.0,17.0,-100.00,East,99,4.0,16.0,100,0.00,,,0.11,1.000000,,2013-02-22 11:42:00,
2013-02-22 05:52:00,17.0,17.0,-100.00,East,99,4.0,16.0,100,0.00,,,0.11,1.000000,,2013-02-22 11:52:00,
2013-02-22 06:02:00,18.0,18.0,-100.00,East,92,5.0,13.0,100,0.00,,,0.11,1.000000,,2013-02-22 12:02:00,
2013-02-22 06:32:00,18.0,18.0,-100.00,East,92,5.0,13.0,100,0.00,,,0.11,1.000000,,2013-02-22 12:32:00,
2013-02-22 06:42:00,18.0,18.0,-100.00,East,92,5.0,13.0,100,0.00,,,0.11,1.000000,,2013-02-22 12:42:00,
2013-02-22 06:52:00,18.0,18.0,-100.00,East,92,5.0,13.0,100,0.00,,,0.11,1.000000,,2013-02-22 12:52:00,
2013-02-22 07:32:00,18.0,18.0,-100.00,East,89,5.0,12.0,100,0.00,,,0.11,1.000000,,2013-02-22 13:32:00,
2013-02-22 07:42:00,18.0,18.0,-100.00,East,89,5.0,12.0,100,0.00,,,0.11,1.000000,,2013-02-22 13:42:00,
2013-02-22 07:52:00,18.0,18.0,-100.00,East,89,5.0,12.0,100,0.00,,,0.11,1.000000,,2013-02-22 13:52:00,
2013-02-22 08:01:00,18.0,18.0,-100.00,East,89,5.0,12.0,100,0.00,,,0.11,1.000000,,2013-02-22 14:01:00,
2013-02-22 08:32:00,19.0,19.0,-100.00,East,87,6.0,18.0,100,0.00,,,0.11,10.000000,,2013-02-22 14:32:00,
2013-02-22 08:42:00,19.0,19.0,-100.00,East,87,6.0,18.0,100,0.00,,,0.11,10.000000,,2013-02-22 14:42:00,
2013-02-22 08:53:00,19.0,19.0,-100.00,East,87,6.0,18.0,100,0.00,,,0.11,10.000000,,2013-02-22 14:53:00,
2013-02-22 09:01:00,19.0,19.0,-100.00,East,87,6.0,18.0,100,0.00,,,0.11,10.000000,,2013-02-22 15:01:00,
2013-02-22 09:32:00,20.0,20.0,-100.00,ENE,76,6.0,14.0,100,0.00,,,0.11,46.000000,,2013-02-22 15:32:00,
2013-02-22 09:42:00,20.0,20.0,-100.00,ENE,76,6.0,14.0,100,0.00,,,0.11,46.000000,,2013-02-22 15:42:00,
2013-02-22 09:52:00,20.0,20.0,-100.00,ENE,76,6.0,14.0,100,0.00,,,0.11,46.000000,,2013-02-22 15:52:00,
2013-02-22 10:01:00,20.0,20.0,-100.00,ENE,76,6.0,14.0,100,0.00,,,0.11,46.000000,,2013-02-22 16:01:00,
2013-02-22 10:32:00,22.0,22.0,-100.00,East,81,4.0,13.0,99,0.00,,,0.11,154.000000,,2013-02-22 16:32:00,
2013-02-22 10:42:00,22.0,22.0,-100.00,East,81,4.0,13.0,99,0.00,,,0.11,154.000000,,2013-02-22 16:42:00,
2013-02-22 10:52:00,22.0,22.0,-100.00,East,81,4.0,13.0,99,0.00,,,0.11,154.000000,,2013-02-22 16:52:00,
2013-02-22 11:01:00,22.0,22.0,-100.00,East,81,4.0,13.0,99,0.00,,,0.11,154.000000,,2013-02-22 17:01:00,
2013-02-22 11:32:00,22.0,21.0,-100.00,East,97,5.0,14.0,95,0.00,,,0.10,148.000000,,2013-02-22 17:32:00,
2013-02-22 11:42:00,22.0,21.0,-100.00,East,97,5.0,14.0,95,0.00,,,0.10,148.000000,,2013-02-22 17:42:00,
2013-02-22 11:52:00,22.0,21.0,-100.00,East,97,5.0,14.0,95,0.00,,,0.10,148.000000,,2013-02-22 17:52:00,
2013-02-22 12:01:00,22.0,21.0,-100.00,East,97,5.0,14.0,95,0.00,,,0.10,148.000000,,2013-02-22 18:01:00,
2013-02-22 12:23:00,23.0,22.0,-100.00,East,91,5.0,13.0,94,0.00,,,0.09,137.000000,,2013-02-22 18:23:00,
2013-02-22 12:32:00,23.0,22.0,-100.00,East,91,5.0,13.0,94,0.00,,,0.09,137.000000,,2013-02-22 18:32:00,
2013-02-22 12:42:00,23.0,22.0,-100.00,East,91,5.0,13.0,94,0.00,,,0.09,137.000000,,2013-02-22 18:42:00,
2013-02-22 12:52:00,23.0,22.0,-100.00,East,91,5.0,13.0,94,0.00,,,0.09,137.000000,,2013-02-22 18:52:00,
2013-02-22 13:01:00,23.0,22.0,-100.00,East,91,5.0,13.0,94,0.00,,,0.09,137.000000,,2013-02-22 19:01:00,
2013-02-22 13:21:00,22.0,21.0,-100.00,ENE,77,5.0,11.0,94,0.00,,,0.06,114.000000,,2013-02-22 19:21:00,
2013-02-22 13:31:00,22.0,21.0,-100.00,ENE,77,5.0,11.0,94,0.00,,,0.06,114.000000,,2013-02-22 19:31:00,
2013-02-22 13:42:00,22.0,21.0,-100.00,ENE,77,5.0,11.0,94,0.00,,,0.06,114.000000,,2013-02-22 19:42:00,
2013-02-22 13:52:00,22.0,21.0,-100.00,ENE,77,5.0,11.0,94,0.00,,,0.06,114.000000,,2013-02-22 19:52:00,
2013-02-22 14:01:00,22.0,21.0,-100.00,ENE,77,5.0,11.0,94,0.00,,,0.06,114.000000,,2013-02-22 20:01:00,
2013-02-22 14:32:00,23.0,22.0,-100.00,ENE,72,4.0,13.0,94,0.00,,,0.03,115.000000,,2013-02-22 20:32:00,
2013-02-22 14:42:00,23.0,22.0,-100.00,ENE,72,4.0,13.0,94,0.00,,,0.03,115.000000,,2013-02-22 20:42:00,
2013-02-22 14:52:00,23.0,22.0,-100.00,ENE,72,4.0,13.0,94,0.00,,,0.03,115.000000,,2013-02-22 20:52:00,
2013-02-22 15:01:00,23.0,22.0,-100.00,ENE,72,4.0,13.0,94,0.00,,,0.03,115.000000,,2013-02-22 21:01:00,
2013-02-22 15:32:00,23.0,22.0,-100.00,ENE,64,5.0,10.0,94,0.00,,,0.02,110.000000,,2013-02-22 21:32:00,
2013-02-22 15:42:00,23.0,22.0,-100.00,ENE,64,5.0,10.0,94,0.00,,,0.02,110.000000,,2013-02-22 21:42:00,
2013-02-22 15:52:00,23.0,22.0,-100.00,ENE,64,5.0,10.0,94,0.00,,,0.02,110.000000,,2013-02-22 21:52:00,
2013-02-22 16:01:00,23.0,22.0,-100.00,ENE,64,5.0,10.0,94,0.00,,,0.02,110.000000,,2013-02-22 22:01:00,
2013-02-22 16:32:00,22.0,21.0,-100.00,ENE,76,5.0,10.0,95,0.00,,,0.00,93.000000,,2013-02-22 22:32:00,
2013-02-22 16:42:00,22.0,21.0,-100.00,ENE,76,5.0,10.0,95,0.00,,,0.00,93.000000,,2013-02-22 22:42:00,
2013-02-22 16:52:00,22.0,21.0,-100.00,ENE,76,5.0,10.0,95,0.00,,,0.00,93.000000,,2013-02-22 22:52:00,
2013-02-22 17:01:00,22.0,21.0,-100.00,ENE,76,5.0,10.0,95,0.00,,,0.00,93.000000,,2013-02-22 23:01:00,
2013-02-22 17:32:00,22.0,22.0,-100.00,East,92,3.0,8.0,98,0.00,,,-99.99,42.000000,,2013-02-22 23:32:00,
2013-02-22 17:42:00,22.0,22.0,-100.00,East,92,3.0,8.0,98,0.00,,,-99.99,42.000000,,2013-02-22 23:42:00,
2013-02-22 17:52:00,22.0,22.0,-100.00,East,92,3.0,8.0,98,0.00,,,-99.99,42.000000,,2013-02-22 23:52:00,
2013-02-22 18:01:00,22.0,22.0,-100.00,East,92,3.0,8.0,98,0.00,,,-99.99,42.000000,,2013-02-23 00:01:00,
2013-02-22 18:21:00,20.0,20.0,-100.00,East,90,3.0,8.0,98,0.00,,,0.00,5.000000,,2013-02-23 00:21:00,
2013-02-22 18:32:00,20.0,20.0,-100.00,East,90,3.0,8.0,98,0.00,,,0.00,5.000000,,2013-02-23 00:32:00,
2013-02-22 18:42:00,20.0,20.0,-100.00,East,90,3.0,8.0,98,0.00,,,0.00,5.000000,,2013-02-23 00:42:00,
2013-02-22 18:52:00,20.0,20.0,-100.00,East,90,3.0,8.0,98,0.00,,,0.00,5.000000,,2013-02-23 00:52:00,
2013-02-22 19:01:00,20.0,20.0,-100.00,East,90,3.0,8.0,98,0.00,,,0.00,5.000000,,2013-02-23 01:01:00,
2013-02-22 19:32:00,20.0,20.0,-100.00,East,95,2.0,10.0,99,0.00,,,0.00,1.000000,,2013-02-23 01:32:00,
2013-02-22 19:42:00,20.0,20.0,-100.00,East,95,2.0,10.0,99,0.00,,,0.00,1.000000,,2013-02-23 01:42:00,
2013-02-22 19:52:00,20.0,20.0,-100.00,East,95,2.0,10.0,99,0.00,,,0.00,1.000000,,2013-02-23 01:52:00,
2013-02-22 20:01:00,20.0,20.0,-100.00,East,95,2.0,10.0,99,0.00,,,0.00,1.000000,,2013-02-23 02:01:00,
2013-02-22 20:32:00,16.0,16.0,-100.00,SE,128,0.0,4.0,99,0.00,,,0.00,1.000000,,2013-02-23 02:32:00,
2013-02-22 20:42:00,16.0,16.0,-100.00,SE,128,0.0,4.0,99,0.00,,,0.00,1.000000,,2013-02-23 02:42:00,
2013-02-22 20:52:00,16.0,16.0,-100.00,SE,128,0.0,4.0,99,0.00,,,0.00,1.000000,,2013-02-23 02:52:00,
2013-02-22 21:01:00,16.0,16.0,-100.00,SE,128,0.0,4.0,99,0.00,,,0.00,1.000000,,2013-02-23 03:01:00,
2013-02-22 21:32:00,17.0,17.0,-100.00,NE,46,2.0,3.0,100,0.00,,,0.00,1.000000,,2013-02-23 03:32:00,
2013-02-22 21:42:00,17.0,17.0,-100.00,NE,46,2.0,3.0,100,0.00,,,0.00,1.000000,,2013-02-23 03:42:00,
2013-02-22 21:52:00,17.0,17.0,-100.00,NE,46,2.0,3.0,100,0.00,,,0.00,1.000000,,2013-02-23 03:52:00,
2013-02-22 22:01:00,17.0,17.0,-100.00,NE,46,2.0,3.0,100,0.00,,,0.00,1.000000,,2013-02-23 04:01:00,
2013-02-22 22:02:00,17.0,17.0,-100.00,ENE,57,1.0,3.0,100,0.00,,,-99.99,1.000000,,2013-02-23 04:02:00,
2013-02-22 22:32:00,17.0,17.0,-100.00,ENE,57,1.0,3.0,100,0.00,,,-99.99,1.000000,,2013-02-23 04:32:00,
2013-02-22 22:42:00,17.0,17.0,-100.00,ENE,57,1.0,3.0,100,0.00,,,-99.99,1.000000,,2013-02-23 04:42:00,
2013-02-22 22:52:00,17.0,17.0,-100.00,ENE,57,1.0,3.0,100,0.00,,,-99.99,1.000000,,2013-02-23 04:52:00,
2013-02-22 23:23:00,17.0,17.0,-100.00,East,95,0.0,2.0,100,0.00,,,0.00,1.000000,,2013-02-23 05:23:00,
2013-02-22 23:33:00,17.0,17.0,-100.00,East,95,0.0,2.0,100,0.00,,,0.00,1.000000,,2013-02-23 05:33:00,
2013-02-22 23:42:00,17.0,17.0,-100.00,East,95,0.0,2.0,100,0.00,,,0.00,1.000000,,2013-02-23 05:42:00,
2013-02-22 23:52:00,17.0,17.0,-100.00,East,95,0.0,2.0,100,0.00,,,0.00,1.000000,,2013-02-23 05:52:00,